Regional Weather Roundup
Issued by NWS Green Bay, WI

Home | Current Version | Previous Version | Text Only | Print | Product List | Glossary On
Versions: 1 2 3 4 5 6 7 8 9 10 11 12 13 14 15 16 17 18 19 20 21 22 23 24 25 26 27 28 29 30 31 32 33 34 35 36 37 38 39 40 41 42 43 44 45 46 47 48 49 50
000
ASUS43 KGRB 300411
RWRGRB

NORTH-CENTRAL AND NORTHEAST WISCONSIN REGIONAL WEATHER ROUNDUP
NATIONAL WEATHER SERVICE GREEN BAY WI
1100 PM CDT FRI MAY 29 2015

WIZ005-009-010>012-018-019-300500-
NORTH CENTRAL WISCONSIN

CITY           SKY/WX    TMP DP  RH WIND       PRES   REMARKS
IRONWOOD       CLOUDY    52  48  87 NW6       30.01R
MANITOWISH WTR LGT RAIN  54  54 100 N7        30.00R
ARBOR VITAE    RAIN      57  55  94 N7        29.99R
EAGLE RIVER    RAIN      55  55 100 N9        29.97R
LAND O LAKES   RAIN      55  54  96 N6        29.99R
RHINELANDER    LGT RAIN  57  54  89 N5        29.97R
PHILLIPS       RAIN      55  54  96 N12       29.99S
ANTIGO         LGT RAIN  59  59  99 N6        29.94S
TOMAHAWK       RAIN      57  56  94 N5        29.97R
MERRILL        RAIN      60  60 100 N5        29.96R
$$

WIZ013-073-300500-
NORTHEAST WISCONSIN

CITY           SKY/WX    TMP DP  RH WIND       PRES   REMARKS
IRON MOUNTAIN  LGT RAIN  60  57  89 N18       29.92R
MARINETTE      CLOUDY    64  61  88 N7        29.89R
OCONTO         CLOUDY    63  63 100 CALM      29.88F
$$

WIZ017-030-035>037-045-300500-
CENTRAL WISCONSIN

CITY           SKY/WX    TMP DP  RH WIND       PRES   REMARKS
MEDFORD        LGT RAIN  58  56  95 N10G18    29.95S
WAUSAU         LGT RAIN  62  60  93 N5        29.91F
MOSINEE        LGT RAIN  61  61 100 N7        29.93F
MARSHFIELD     LGT RAIN  63  59  87 NE8       29.92S
WISC RAPIDS    CLOUDY    66  63  90 NE3       29.91F
STEVENS POINT  LGT RAIN  62  61  97 N6        29.91F
WAUPACA        LGT RAIN  67  67  98 CALM      29.91F
SHAWANO        DRIZZLE   66  64  96 NW3       29.91R
CLINTONVILLE   RAIN      64  63  94 CALM      29.91R
$$

WIZ038-039-048-051-300500-
FOX VALLEY

CITY           SKY/WX    TMP DP  RH WIND       PRES   REMARKS
NWS GREEN BAY  LGT RAIN  66  63  90 NW5       29.89F
APPLETON       RAIN      64  64 100 VRB3      29.93R
OSHKOSH        LGT RAIN  65  63  93 W5        29.92R
FOND DU LAC    RAIN      65  63  93 N12       29.91S FOG
$$

WIZ022-050-052-300500-
EAST CENTRAL WISCONSIN

CITY           SKY/WX    TMP DP  RH WIND       PRES   REMARKS
STURGEON BAY   CLOUDY    64  61  88 NW3       29.90S
MANITOWOC      CLOUDY    61  60  97 CALM      29.89S
SHEBOYGAN      CLOUDY    67  66  97 NW6       29.89R
$$

LMZ563-521-522-541>543-300500-
LAKESHORE

STATION/POSITION TIME  TEMP    WIND        PRES    VSBY  WAVE
                       AIR SEA DIR/SP/G                  HT/PER
                 (UTC) (F)     (DEG/KT/KT) (MB)    (MI)  (FT/S)
SHEBOYGAN LKSHOR 0400   61     350/  4/  6 1012.5R
KEWAUNEE LKSHORE 0300   61     330/  6/  8 1011.5R
ALGOMA MARINA    0308          330/  3/  5   N/A
NORTHPORT PIER   0300   60     310/  4/  7 1012.2R
N MID LAKE BUOY  0350   47 37  200/  2/  4 1012.0F         1/ 4
SISTER BAY LKSHO 0303   63      40/  4/  8   N/A
CHAMBERS ISLAND  0300   58      20/  6/  8 1011.9S
MENOMINEE LKSHOR 0300   62      CALM  /  3 1012.3F
$$



USA.gov is the U.S. government's official web portal to all federal, state and local government web resources and services.